This demonstration page uses our WeatherBlox Daily Observations layout. Learn more.

Left ArrowRight Arrow

36.19886, -115.1175

Hourly Observations for May 3, 2020

Temp ( °F °C ) Dew Point ( °F °C ) Humidity (%) Winds ( mph kmh ) Pressure ( in mb ) Visibility ( mi km ) Precip ( " mm )
12:53 am 00:53 Clear 77 25 25 -3.9 14 14 S 10 17 29.85 1011 10 16 N/A
1:53 am 01:53 Clear 75 23.9 25 -3.9 15 15 S 9 15 29.85 1011 10 16 N/A
2:53 am 02:53 Clear 74 23.3 23 -5 15 15 N N/A 29.84 1011 10 16 N/A
3:53 am 03:53 Clear 72 22.2 24 -4.4 17 17 SW 6 9 29.84 1011 10 16 N/A
4:53 am 04:53 Clear 71 21.7 24 -4.4 17 17 S 5 7 29.86 1011 10 16 N/A
5:53 am 05:53 Sunny 68 20 26 -3.3 21 21 VRB 3 6 29.88 1012 10 16 N/A
6:53 am 06:53 Sunny 67 19.4 27 -2.8 22 22 N 6 9 29.90 1012 10 16 N/A
7:53 am 07:53 Sunny 71 21.7 28 -2.2 20 20 N N/A 29.91 1013 10 16 N/A
8:53 am 08:53 Sunny 75 23.9 26 -3.3 16 16 ENE 3 6 29.91 1013 10 16 N/A
9:53 am 09:53 Sunny 78 25.6 27 -2.8 15 15 NNE 3 6 29.91 1013 10 16 N/A
10:53 am 10:53 Sunny 81 27.2 27 -2.8 14 14 N N/A 29.90 1013 10 16 N/A
11:53 am 11:53 Sunny 84 28.9 27 -2.8 12 12 SSE 10 17 29.88 1012 10 16 N/A
12:53 pm 12:53 Sunny 86 30 25 -3.9 11 11 SSE 10 17 29.86 1011 10 16 N/A
1:53 pm 13:53 Sunny 89 31.7 28 -2.2 11 11 E 8 13 29.83 1010 10 16 N/A
2:53 pm 14:53 Sunny 89 31.7 28 -2.2 11 11 N N/A 29.80 1009 10 16 N/A
3:53 pm 15:53 Sunny 91 32.8 27 -2.8 10 10 W 8 13 29.78 1009 10 16 N/A
4:53 pm 16:53 Sunny 91 32.8 25 -3.9 9 9 W 22 35 29.77 1008 10 16 N/A
5:53 pm 17:53 Sunny 90 32.2 24 -4.4 9 9 WSW 25 41 29.78 1008 10 16 N/A
6:53 pm 18:53 Sunny 88 31.1 25 -3.9 10 10 WSW 17 28 29.79 1009 10 16 N/A
7:53 pm 19:53 Clear 86 30 26 -3.3 11 11 W 10 17 29.80 1009 10 16 N/A
8:53 pm 20:53 Clear 84 28.9 27 -2.8 12 12 WSW 7 11 29.82 1010 10 16 N/A
9:53 pm 21:53 Clear 82 27.8 22 -5.6 11 11 SSW 13 20 29.84 1011 10 16 N/A
10:53 pm 22:53 Clear 81 27.2 22 -5.6 11 11 WSW 8 13 29.84 1011 10 16 N/A
11:53 pm 23:53 Clear 78 25.6 23 -5 13 13 SW 7 11 29.85 1011 10 16 N/A

Powered by AerisWeather